Regional Weather Roundup
Issued by NWS

Home | Current Version | Previous Version | Graphics & Text | Print | Product List | Glossary On
Versions: 1 2 3 4 5 6 7 8 9 10 11 12 13 14 15 16 17 18 19 20 21 22 23 24 25 26 27 28 29 30 31 32 33 34 35 36 37 38 39 40 41 42 43 44 45 46 47 48 49 50
575
ASUS43 KMPX 220601
RWRMN
WEATHER ROUNDUP FOR MINNESOTA
NATIONAL WEATHER SERVICE TWIN CITIES/CHANHASSEN MN
100 AM CDT MON MAY 22 2017


NOTE: "FAIR" INDICATES FEW OR NO CLOUDS BELOW 12,000 FEET WITH NO
SIGNIFICANT WEATHER AND/OR OBSTRUCTIONS TO VISIBILITY. N/A MEANS
CURRENT SKY AND/OR WEATHER CONDITIONS ARE NOT AVAILABLE.

MNZ060>063-068>070-220700-
   Twin Cities Metro

CITY           SKY/WX    TMP DP  RH WIND       PRES   REMARKS
TWIN CITIES    CLOUDY    46  40  79 SW9       29.90F
6HR MIN TEMP:  46; 6HR MAX TEMP:  48;

ST PAUL        MOCLDY    46  42  86 W6        29.91F
CRYSTAL        CLOUDY    46  40  79 W9        29.89S
BLAINE         CLOUDY    46  45  93 SW5       29.89S
LAKEVILLE      MOCLDY    45  43  93 SW7       29.92S
EDEN PRAIRIE   PTCLDY    45  41  86 W8        29.90F
6HR MIN TEMP:  45; 6HR MAX TEMP:  48;

SOUTH ST PAUL  PTCLDY    46  42  86 W7        29.90F
LAKE ELMO      MOCLDY    45  43  93 SW7       29.90F
$$
MNZ001>005-007-008-013>017-022>024-027-028-220700-
   Northwest Minnesota

CITY           SKY/WX    TMP DP  RH WIND       PRES   REMARKS
BEMIDJI        CLOUDY    43  42  97 W7        29.80F
HALLOCK        DRIZZLE   48  46  93 NW13      29.84S
ROSEAU         CLOUDY    46  41  81 NW8       29.80S
WARROAD        CLOUDY    45  43  93 N6        29.80S
CROOKSTON      CLOUDY    46  45  93 NW13      29.85F
FOSSTON        CLOUDY    43  43 100 W10       29.82F
DETROIT LAKES  PTCLDY    43  41  93 W8        29.88R
MOORHEAD       PTCLDY    43  39  87 W7        29.90S
PARK RAPIDS    MOCLDY    44  40  85 W8        29.82F
MAHNOMEN       CLOUDY    43  42  96 W9        29.85S
$$
MNZ006-009>011-018-025>026-220700-
   North Central Minnesota

CITY           SKY/WX    TMP DP  RH WIND       PRES   REMARKS
BAUDETTE       LGT RAIN  46  44  93 N5        29.76F FOG
FLAG ISLAND    CLOUDY    46  43  87 NW12      29.77S
INTL FALLS     CLOUDY    46  44  93 W8        29.74S FOG
6HR MIN TEMP:  46; 6HR MAX TEMP:  48; 6HR PCP: TRACE;

WASKISH        CLOUDY    45  43  93 W10       29.78F
BIG FORK       CLOUDY    45  43  93 W3        29.77F
LONGVILLE      CLOUDY    45  43  93 W6        29.81S
GRAND RAPIDS   CLOUDY    45  42  89 W8        29.81F
CRANE LAKE     DRIZZLE   45  43  93 CALM      29.75S
ORR            CLOUDY    45  41  87 W8        29.72F
COOK           CLOUDY    45  43  93 W9        29.75F
WALKER         CLOUDY    44  41  89 W8        29.81S
$$
MNZ012-019>021-037-220700-
   Northeast Minnesota

CITY           SKY/WX    TMP DP  RH WIND       PRES   REMARKS
DULUTH         CLOUDY    45  43  93 W10       29.77F
6HR MIN TEMP:  45; 6HR MAX TEMP:  48; 6HR PCP:  0.03;

ELY            RAIN      45  45 100 W6        29.73S
HIBBING        CLOUDY    43  42  97 W5        29.76F
EVELETH        CLOUDY    45  41  87 W6        29.77S
DULUTH HARBOR  CLOUDY    46  45  93 SW10      29.79F
TWO HARBORS    CLOUDY    48  45  87 W8        29.74S
SILVER BAY     CLOUDY    46  46 100 CALM      29.72F FOG
GRAND MARAIS     N/A     40  39  97 CALM      29.71F
G MARAIS ARPRT CLOUDY    41  37  87 CALM      29.70S
$$
MNZ029>031-032-039>041-046>048-054>057-064-220700-
   West Central Minnesota

CITY           SKY/WX    TMP DP  RH WIND       PRES   REMARKS
FERGUS FALLS   PTCLDY    41  41 100 W6        29.89S
WHEATON        CLEAR     45  39  81 W3        29.93S
MORRIS         CLEAR     43  41  93 W7        29.90S
ALEXANDRIA     MOCLDY    44  42  93 W8        29.89F
ELBOW LAKE     FAIR      41  40  96 SW6       29.90S
WADENA         PTCLDY    43  41  93 W8        29.85S
GLENWOOD       CLOUDY    43  43 100 W8        29.90S
APPLETON       CLEAR     45  39  81 W7        29.92S
BENSON         PTCLDY    45  41  87 W7        29.93S
ORTONVILLE     CLEAR     45  39  81 W3        29.92F
MADISON        CLEAR     46  43  87 W3        29.93F
WILLMAR          N/A     45  43  93 SW8       29.93S
$$
MNZ033>034-036-042>043-049>051-058-059-220700-
   Central Minnesota

CITY           SKY/WX    TMP DP  RH WIND       PRES   REMARKS
ST CLOUD       CLOUDY    44  42  93 W8        29.88S
6HR MIN TEMP:  44; 6HR MAX TEMP:  46; 6HR PCP:  0.01;

SAUK CENTRE    FAIR      43  41  93 W8        29.89S
PAYNESVILLE    MOCLDY    42  42 100 W7        29.91S
AITKIN         CLOUDY    45  41  87 SW5       29.81F
PINE RIVER     CLOUDY    45  43  93 W3        29.86F
BRAINERD       CLOUDY    44  42  93 W9        29.84F
STAPLES        CLOUDY    43  41  93 W8        29.85S
LONG PRAIRIE   FAIR      41  39  93 SW6       29.88F
LITTLE FALLS   CLOUDY    45  41  87 W6        29.87S
LITCHFIELD     MOCLDY    45  43  93 CALM      29.92S
BUFFALO        CLOUDY    46  41  83 SW6       29.92R
MAPLE LAKE     CLOUDY    46  43  90 W7        29.91S
HUTCHINSON     CLOUDY    46  43  90 SW5       29.94S
$$
MNZ037-044-045-052-053-220700-
   East Central Minnesota

CITY           SKY/WX    TMP DP  RH WIND       PRES   REMARKS
PRINCETON      CLOUDY    45  43  93 SW3       29.88S
MORA           LGT RAIN  41  39  93 W6        29.87F
CAMBRIDGE      LGT RAIN  46  43  87 SW3       29.86S
RUSH CITY      LGT RAIN  44  42  93 W7        29.87S
MOOSE LAKE     CLOUDY    45  41  87 W5        29.80F
HINCKLEY       DRIZZLE   45  43  93 W7        29.84F
CLOQUET        CLOUDY    45  41  87 W10       29.79S
MCGREGOR       CLOUDY    43  43 100 W5        29.82S
$$
MNZ071>073-080-081-089-090-097-098-220700-
   Southwest Minnesota

CITY           SKY/WX    TMP DP  RH WIND       PRES   REMARKS
MONTEVIDEO     CLEAR     45  41  87 W5        29.93S
CANBY          CLEAR     42  41  96 CALM      29.95S
MARSHALL       CLEAR     43  40  89 SW6       29.95F
REDWOOD FALLS  PTCLDY    46  39  76 SW7       29.93F
OLIVIA         CLOUDY    43  41  93 W9        29.92F
PIPESTONE      CLOUDY    45  39  81 E3        29.94S
WINDOM         CLEAR     45  41  87 S3        29.96F
WORTHINGTON    CLEAR     44  41  89 CALM      29.96F
JACKSON        PTCLDY    43  41  93 CALM      29.97F
TRACY          CLEAR     44  42  91 SW8       29.95F
SLAYTON        CLEAR     41  40  95 S3        29.97F
$$
MNZ065>067-074>077-082>085-091>093-220700-
   South Central Minnesota

CITY           SKY/WX    TMP DP  RH WIND       PRES   REMARKS
MANKATO        PTCLDY    44  41  89 SW9       29.95F
NEW ULM        CLOUDY    45  39  81 SW7       29.94F
ST JAMES       CLEAR     45  41  87 S3        29.97S
FAIRMONT       CLEAR     44  41  89 SW9       29.98F
GLENCOE        PTCLDY    46  44  93 SW3       29.93R
FARIBAULT      PTCLDY    46  43  87 SW7       29.94S
OWATONNA       MOCLDY    45  39  81 SW9       29.94F
WASECA         PTCLDY    41  37  87 SW7       29.96F
ALBERT LEA     MOCLDY    46  43  87 SW6       29.97S
$$
MNZ078>079-086>088-094>096-220700-
   Southeast Minnesota

CITY           SKY/WX    TMP DP  RH WIND       PRES   REMARKS
ROCHESTER      PTCLDY    43  41  93 SW14      29.95S
6HR MIN TEMP:  42; 6HR MAX TEMP:  46;

RED WING       CLEAR     45  39  81 NW5       29.91S
STANTON        PTCLDY    46  41  81 SW8       29.92S
DODGE CENTER   PTCLDY    43  39  87 SW8       29.94S
WINONA         CLEAR     46  39  76 W8        29.94S
AUSTIN         CLOUDY    43  39  87 SW7       29.96S
PRESTON        CLEAR     42  38  86 SW9       29.96R
$$
ABBREVIATIONS USED IN REMARKS
   TC - TEMPERATURES IN CELSIUS
  WCI - WIND CHILL INDEX
   HX - HEAT INDEX
  VSB - VISIBILITY
$$




USA.gov is the U.S. government's official web portal to all federal, state and local government web resources and services.